CAPE
0 0 0 0 0 0 0 0 2 1 13 0 0 0 0 0 0 0 17 81 65 76 269 535 1234 1170 1111 912 742 548 390 107 0 0 0 0 0 0 0 0 0 0 0 0 0 1 0 0 0
0 0 0 0 0 0 7 6 25 62 5 0 0 0 0 1 0 0 40 116 98 116 524 191 1437 1291 1352 1123 965 847 665 312 129 18 0 0 0 0 0 0 0 0 0 0 0 38 134 51 3
0 0 0 0 0 0 127 72 56 16 0 0 0 0 0 0 0 0 150 118 88 92 632 398 1557 1405 1533 1429 1175 1049 951 771 400 140 84 56 37 37 44 27 15 16 125 131 118 70 273 381 184
0 0 0 0 0 47 61 166 54 31 35 0 0 0 0 0 0 0 33 113 97 80 525 1456 1568 1535 1615 1642 1476 1324 1191 1072 807 409 286 236 238 546 545 133 145 151 238 382 352 287 238 412 285
0 0 0 0 0 0 85 112 181 121 54 9 0 0 0 22 0 0 65 120 102 75 197 1322 1755 1812 1795 1924 1734 1597 1467 1419 1300 889 606 522 828 932 795 529 613 645 698 643 521 663 525 373 211
0 0 0 0 0 0 26 12 6 24 58 14 5 4 0 19 0 0 10 87 69 82 89 478 2027 1953 1948 1998 1913 1766 1755 1746 1672 1522 1352 1130 1226 1361 1187 965 1016 912 832 732 655 597 515 476 287
0 0 0 3 3 0 7 8 4 4 28 30 9 0 0 69 13 0 6 38 60 59 67 134 1860 2025 2129 2080 1987 1971 1980 2020 1985 1870 1735 1683 1402 1606 1255 971 736 484 369 321 344 440 506 467 333
0 0 0 10 2 0 3 10 0 0 2 30 0 0 8 49 6 13 4 19 35 113 72 163 516 1860 1605 1171 2251 2181 2173 2130 2038 1961 1842 1803 1368 1332 1048 358 242 119 89 114 130 192 272 395 512
0 0 0 0 3 1 2 18 4 24 0 0 0 0 0 0 0 10 3 7 19 47 161 127 189 771 1225 660 1125 2238 2068 2072 2029 1668 1673 1516 592 355 606 708 84 87 13 10 35 82 110 196 301
0 0 0 0 4 13 15 25 22 33 32 0 0 0 8 20 34 37 0 4 8 71 105 177 905 619 979 510 1003 1809 1219 1264 1092 748 525 1209 670 584 602 583 80 56 21 33 101 319 441 391 111
0 0 0 24 38 15 43 23 19 43 41 27 0 0 0 2 20 41 0 0 5 30 128 226 1421 1895 1428 921 729 1723 1260 1097 993 860 1183 1197 682 886 849 727 713 597 310 524 318 428 465 246 490
0 0 0 0 10 6 16 17 27 49 45 7 0 0 0 0 18 36 0 2 31 56 38 287 580 2093 2689 1121 615 958 1214 1183 889 1045 1459 1153 814 1229 1132 713 676 1001 508 528 280 243 698 251 307
0 0 0 0 0 2 19 7 2 48 12 0 0 0 0 3 29 0 0 0 6 49 52 119 1120 2464 2851 3088 968 1353 1329 901 1139 880 918 996 905 1412 986 1243 875 758 516 626 951 889 733 860 475
0 1 0 0 0 5 16 7 5 9 0 0 0 0 3 4 2 0 0 0 13 85 103 157 1207 2597 2784 2531 2925 2451 2431 1181 937 716 598 969 1151 1281 920 1005 1257 1416 1303 711 618 600 688 573 285
0 5 4 1 1 0 19 4 0 0 0 0 0 0 0 3 0 0 0 6 8 119 200 1342 2058 2576 3224 3245 3061 2067 1347 1045 832 673 841 858 1219 1420 1192 1011 1600 1650 1357 1222 972 973 813 403 436
0 9 0 0 0 0 21 0 0 0 2 1 15 3 3 0 0 0 0 69 306 456 743 1383 817 2425 3329 3276 2742 1946 1242 1060 562 529 713 1203 1259 1214 1130 1311 1580 1759 1533 1545 1302 670 563 719 255
0 0 0 0 0 3 41 3 0 17 1 12 10 9 0 0 0 5 0 52 289 761 1433 1340 2124 2032 3299 3545 2450 2192 2340 976 584 595 778 810 1021 1093 1605 1436 1565 1512 1498 1095 793 734 1228 896 532
0 0 0 0 0 9 20 36 23 60 1 1 0 9 1 0 0 0 30 52 255 1113 1687 2044 2002 2646 3449 2720 3012 1599 960 846 588 730 709 768 1063 1084 1712 1367 1354 1376 1129 829 898 1032 962 1003 1062
0 0 0 0 0 18 11 18 4 27 0 3 0 0 0 0 0 8 1 103 43 461 1002 1957 2045 2711 2802 2315 1853 1328 861 978 716 742 761 994 1142 1448 1384 1312 1118 1176 1284 1090 782 718 405 789 1046
0 0 0 0 0 26 16 5 0 0 1 0 0 0 0 0 0 0 3 0 462 566 984 1196 1514 2872 2892 2309 2061 1270 1178 703 708 634 936 1086 1036 1070 1271 1195 1082 1032 1205 944 495 583 687 663 1134
0 0 0 0 0 5 3 0 0 0 0 0 0 0 0 0 0 0 0 21 576 719 956 975 1290 2184 2754 2331 1772 1376 937 771 758 588 801 1008 904 868 1004 1012 914 848 936 715 813 826 671 860 824
0 0 0 0 0 0 4 0 0 0 0 0 0 0 0 0 0 0 0 691 685 769 955 1160 1549 1993 1829 1950 1424 2142 985 585 458 672 426 583 552 624 514 720 737 945 786 807 869 864 720 663 836
0 0 0 1 0 0 0 0 0 0 0 0 0 0 0 0 0 0 0 726 676 795 1039 1534 1595 1401 1409 1437 1665 812 866 511 412 239 581 873 842 584 440 636 639 652 910 888 865 634 577 989 1089
0 0 2 2 0 0 0 0 0 0 0 0 3 0 0 0 0 2 651 684 715 841 1217 1283 1052 1068 892 747 821 916 640 381 252 425 491 969 709 496 435 341 446 502 743 801 911 612 653 990 1001
0 5 3 2 0 0 0 0 0 0 0 0 0 0 0 46 196 419 605 638 747 918 999 974 942 877 721 680 640 767 826 738 648 604 731 551 608 829 538 310 432 624 882 788 661 708 698 987 1035
0 0 0 0 0 0 0 0 0 0 0 0 0 0 197 356 462 484 590 641 731 819 803 696 806 699 575 580 647 641 771 516 347 431 246 544 436 545 328 386 531 681 665 663 761 1370 814 760 922
0 3 0 1 8 9 3 1 0 0 1 0 0 0 0 479 621 597 623 660 635 679 630 703 680 578 502 451 599 676 693 308 756 580 499 521 807 254 191 264 454 542 619 491 696 962 773 795 888
1 0 0 0 8 13 2 1 0 0 0 0 0 24 332 620 678 664 631 595 589 523 598 681 591 494 342 511 484 649 484 484 564 474 318 161 204 48 82 147 309 334 346 373 677 994 958 937 820
0 7 0 0 7 10 10 0 0 0 0 41 8 90 646 692 622 588 554 581 509 539 584 542 346 264 407 405 661 970 847 331 474 392 202 155 120 39 54 73 98 100 195 545 756 838 635 536 1007
0 4 0 3 3 1 9 5 0 1 13 78 207 472 629 595 571 525 549 520 503 564 518 245 218 130 281 287 512 1004 988 470 536 445 171 79 53 15 36 60 88 70 626 472 648 427 339 558 696
CIN
-0 -0 -0 -0 -0 -0 -0 -0 -0 -0 -7 -0 -0 -0 -0 -0 -0 -0 -34 -26 -36 -70 -305 -443 -337 -299 -262 -247 -229 -209 -188 -240 -0 -0 -0 -0 -0 -0 -0 -0 -0 -0 -0 -0 -0 -0 -0 -0 -0
-0 -0 -0 -0 -0 -0 -0 -1 -22 -0 -0 -0 -0 -0 -0 -0 -0 -0 -0 -31 -42 -89 -249 -353 -319 -283 -230 -211 -201 -177 -163 -195 -217 -246 -7 -0 -0 -0 -0 -0 -0 -0 -0 -0 -0 -76 -25 -34 -13
-0 -0 -0 -0 -0 -0 -0 -42 -8 -0 -0 -0 -0 -0 -0 -0 -0 -0 -31 -58 -50 -108 -203 -268 -325 -276 -218 -185 -173 -165 -156 -138 -164 -194 -197 -192 -182 -154 -146 -187 -170 -124 -39 -35 -42 -53 -6 -2 -7
-0 -0 -0 -0 -1 -0 -0 -2 -0 -0 -0 -0 -0 -0 -0 -0 -0 -0 -51 -65 -75 -127 -129 -270 -328 -276 -224 -171 -158 -155 -140 -114 -113 -149 -160 -151 -118 -20 -4 -73 -59 -25 -5 -0 -11 -5 -2 -0 -5
-0 -0 -0 -0 -0 -0 -2 -0 -0 -1 -0 -0 -0 -0 -0 -16 -0 -0 -47 -93 -61 -92 -116 -159 -291 -242 -213 -148 -145 -130 -124 -97 -70 -92 -114 -104 -27 -4 -0 -0 -0 -0 -0 -0 -0 -2 -0 -1 -17
-0 -0 -0 -0 -0 -0 -0 -0 -0 -0 -0 -0 -0 -0 -0 -10 -0 -0 -41 -50 -31 -38 -115 -112 -242 -237 -197 -141 -127 -113 -101 -74 -42 -25 -15 -13 -2 -0 -0 -0 -0 -0 -0 -0 -0 -2 -3 -3 -15
-0 -0 -0 -0 -0 -0 -1 -0 -0 -0 -0 -0 -1 -0 -0 -3 -12 -0 -25 -36 -26 -13 -60 -89 -138 -202 -164 -120 -104 -90 -76 -58 -33 -16 -2 -0 -0 -0 -0 -0 -2 -14 -16 -7 -2 -0 -0 -1 -1
-0 -0 -0 -0 -0 -0 -0 -0 -0 -0 -0 -1 -0 -0 -1 -1 -34 -53 -21 -14 -8 -6 -4 -67 -92 -95 -139 -164 -69 -55 -52 -43 -30 -16 -2 -0 -0 -0 -3 -86 -102 -107 -126 -99 -81 -35 -0 -0 -0
-0 -0 -0 -0 -0 -0 -1 -0 -6 -2 -0 -0 -0 -0 -0 -0 -0 -38 -25 -11 -6 -0 -0 -31 -62 -91 -100 -132 -123 -43 -42 -26 -15 -19 -3 -19 -80 -87 -40 -32 -181 -102 -141 -265 -184 -103 -52 -2 -0
-0 -0 -0 -0 -0 -0 -0 -1 -0 -1 -2 -0 -0 -0 -1 -1 -0 -6 -0 -5 -13 -0 -1 -18 -46 -93 -80 -100 -76 -71 -95 -67 -80 -98 -120 -36 -70 -46 -24 -20 -196 -204 -243 -194 -121 -22 -3 -2 -33
-0 -0 -0 -0 -0 -1 -0 -0 -5 -2 -0 -0 -0 -0 -0 -16 -13 -12 -0 -0 -12 -5 -1 -11 -13 -58 -61 -70 -49 -36 -54 -81 -79 -77 -25 -17 -48 -6 -2 -6 -5 -31 -81 -3 -35 -5 -9 -6 -4
-0 -0 -0 -0 -1 -4 -0 -0 -0 -1 -0 -1 -0 -0 -0 -0 -18 -21 -0 -21 -12 -1 -2 -9 -51 -83 -46 -42 -68 -44 -33 -60 -77 -42 -20 -26 -41 -1 -2 -12 -0 -2 -0 -0 -0 -0 -5 -6 -3
-0 -0 -0 -0 -0 -12 -0 -0 -0 -0 -1 -0 -0 -0 -0 -23 -14 -0 -0 -0 -51 -27 -21 -9 -47 -70 -77 -17 -48 -56 -30 -64 -49 -57 -54 -64 -32 -0 -0 -0 -1 -0 -0 -0 -4 -5 -8 -2 -5
-0 -0 -0 -0 -0 -2 -4 -0 -0 -0 -0 -0 -1 -0 -25 -18 -10 -0 -0 -0 -56 -29 -22 -29 -34 -77 -103 -88 -2 -18 -8 -37 -94 -89 -92 -48 -29 -1 -7 -0 -0 -0 -0 -0 -0 -1 -6 -11 -18
-0 -0 -0 -0 -0 -0 -0 -0 -0 -0 -0 -0 -6 -0 -2 -24 -0 -0 -0 -18 -76 -42 -23 -28 -32 -86 -101 -50 -19 -55 -98 -102 -114 -122 -73 -55 -16 -1 -5 -0 -0 -0 -5 -2 -6 -1 -0 -0 -3
-0 -0 -0 -0 -0 -0 -0 -0 -0 -0 -0 -0 -0 -0 -0 -0 -0 -0 -0 -28 -35 -41 -28 -51 -54 -99 -100 -69 -63 -70 -99 -155 -122 -125 -64 -17 -19 -14 -6 -0 -0 -0 -0 -0 -0 -10 -0 -0 -16
-0 -0 -0 -0 -0 -0 -0 -0 -0 -0 -0 -0 -11 -0 -0 -0 -0 -15 -0 -44 -46 -40 -39 -60 -78 -103 -87 -45 -86 -61 -16 -140 -148 -111 -53 -19 -10 -4 -1 -0 -0 -0 -0 -0 -0 -0 -0 -0 -5
-0 -0 -0 -0 -0 -0 -0 -0 -0 -0 -0 -0 -0 -0 -0 -0 -0 -0 -59 -54 -46 -31 -49 -98 -121 -97 -53 -71 -37 -110 -142 -161 -132 -101 -62 -27 -1 -1 -3 -0 -0 -0 -0 -0 -0 -0 -1 -0 -0
-0 -0 -0 -0 -0 -0 -0 -0 -0 -1 -0 -0 -0 -0 -0 -0 -0 -23 -24 -47 -89 -80 -111 -167 -211 -125 -81 -82 -105 -122 -139 -112 -124 -87 -53 -11 -0 -1 -0 -0 -0 -0 -0 -0 -0 -0 -5 -0 -0
-0 -0 -0 -0 -0 -0 -1 -0 -0 -0 -0 -0 -0 -0 -0 -0 -0 -0 -34 -0 -119 -156 -247 -301 -285 -116 -78 -81 -61 -82 -52 -103 -97 -62 -13 -0 -0 -0 -2 -0 -0 -0 -0 -0 -0 -0 -0 -1 -0
-0 -0 -0 -0 -0 -2 -0 -0 -0 -0 -0 -0 -0 -0 -0 -0 -0 -0 -0 -27 -154 -245 -325 -349 -312 -164 -70 -61 -72 -67 -80 -61 -70 -48 -0 -0 -1 -0 -2 -0 -0 -0 -0 -0 -0 -0 -0 -0 -0
-0 -0 -0 -0 -0 -0 -0 -0 -0 -0 -0 -0 -0 -0 -0 -0 -0 -0 -0 -46 -196 -259 -320 -322 -225 -154 -131 -74 -83 -6 -57 -67 -51 -10 -0 -3 -0 -1 -0 -0 -0 -0 -0 -0 -0 -0 -0 -0 -0
-0 -0 -0 -0 -0 -0 -0 -0 -0 -0 -0 -0 -0 -0 -0 -0 -0 -0 -1 -93 -210 -289 -298 -224 -200 -178 -162 -88 -23 -108 -34 -61 -37 -38 -3 -0 -0 -0 -0 -0 -0 -0 -0 -0 -0 -0 -0 -0 -0
-0 -0 -0 -0 -0 -0 -0 -0 -0 -0 -0 -0 -0 -0 -0 -0 -0 -25 -27 -169 -242 -283 -242 -231 -245 -193 -189 -167 -118 -51 -69 -45 -30 -6 -0 -1 -0 -0 -0 -0 -0 -0 -0 -0 -0 -0 -0 -0 -0
-0 -0 -0 -0 -0 -0 -0 -0 -0 -0 -0 -0 -0 -0 -0 -43 -41 -43 -120 -178 -261 -262 -233 -226 -204 -179 -167 -142 -108 -43 -8 -8 -2 -0 -0 -0 -0 -0 -0 -0 -0 -0 -0 -0 -0 -0 -0 -0 -0
-0 -0 -0 -0 -0 -0 -0 -0 -0 -0 -0 -0 -0 -0 -5 -45 -68 -93 -147 -210 -228 -236 -228 -215 -172 -156 -147 -108 -50 -24 -3 -0 -1 -1 -0 -5 -1 -10 -1 -0 -0 -0 -0 -0 -0 -0 -0 -0 -0
-0 -0 -0 -0 -0 -0 -0 -0 -7 -0 -21 -0 -0 -0 -0 -42 -68 -106 -168 -184 -211 -226 -206 -167 -137 -130 -108 -81 -26 -5 -0 -8 -7 -6 -2 -0 -1 -2 -1 -0 -0 -0 -0 -0 -0 -0 -0 -0 -0
-0 -0 -0 -0 -0 -0 -0 -0 -0 -0 -0 -0 -0 -6 -16 -57 -77 -130 -138 -175 -190 -187 -156 -116 -117 -99 -97 -40 -21 -0 -0 -0 -0 -0 -0 -5 -0 -0 -18 -2 -1 -0 -0 -0 -0 -0 -0 -0 -0
-0 -0 -0 -0 -0 -0 -0 -0 -0 -0 -0 -0 -0 -0 -32 -59 -98 -129 -140 -163 -173 -146 -122 -117 -122 -123 -60 -37 -5 -8 -2 -0 -0 -0 -3 -11 -1 -0 -0 -0 -1 -0 -0 -0 -0 -0 -0 -0 -0
-0 -0 -0 -0 -0 -0 -0 -0 -0 -1 -28 -23 -0 -9 -38 -61 -92 -88 -125 -143 -123 -114 -104 -137 -133 -139 -66 -52 -10 -9 -3 -0 -0 -0 -0 -18 -0 -0 -0 -0 -0 -0 -2 -0 -0 -0 -4 -0 -0
Wind_Speed
10 12 11 7 9 9 14 13 11 4 10 2 3 7 13 13 10 6 8 7 7 16 20 21 20 19 18 17 16 15 14 13 12 11 11 10 9 7 6 6 5 5 5 5 5 5 5 5 5
12 11 6 9 9 13 13 12 10 5 9 6 9 9 12 9 7 5 6 8 9 17 18 21 20 19 18 16 16 15 14 14 13 12 10 9 8 7 6 6 6 7 7 7 7 7 8 8 7
14 13 9 8 14 15 8 6 6 7 2 5 6 1 8 8 6 6 10 6 12 15 18 18 22 19 18 17 16 15 15 13 13 12 10 9 8 9 9 8 8 9 10 9 9 10 10 9 9
9 8 9 12 18 15 13 5 6 8 8 4 7 11 2 6 3 9 5 7 12 15 17 18 23 20 19 18 17 16 15 14 13 12 11 10 10 9 9 10 10 11 12 13 12 12 12 9 9
11 10 13 15 19 20 8 9 12 11 9 6 3 11 7 16 9 4 3 6 10 13 14 18 22 20 19 18 18 17 16 14 13 12 11 11 10 11 11 11 12 13 14 15 15 14 13 11 9
11 12 15 16 20 18 10 7 11 14 13 10 6 12 8 9 8 5 1 7 10 13 14 17 20 21 19 18 18 16 15 14 13 12 11 11 11 12 12 13 12 12 12 12 12 13 11 10 9
17 14 17 20 19 18 4 4 11 14 12 11 12 5 10 7 8 5 4 6 9 12 15 13 16 18 18 16 15 16 15 14 13 11 10 10 11 12 11 8 8 9 10 11 12 11 10 9 10
15 15 24 20 17 21 16 2 13 9 13 4 2 9 12 14 9 9 12 8 10 12 14 14 14 16 16 16 15 14 14 13 12 11 10 10 10 11 11 9 13 12 8 9 10 11 12 11 10
17 16 18 24 22 19 20 15 16 1 10 16 14 13 14 16 8 11 12 13 11 9 11 13 15 15 16 16 16 14 15 14 11 11 11 8 9 11 13 14 9 6 7 8 9 10 11 13 14
21 18 25 23 20 18 21 22 19 17 13 16 16 18 18 12 12 14 15 13 16 13 13 14 12 14 16 13 15 15 14 11 10 11 10 9 9 9 6 6 7 9 11 11 12 12 12 11 11
25 25 25 24 24 25 25 27 25 21 21 22 18 18 19 19 17 18 16 17 15 15 11 14 14 13 14 13 10 8 8 9 9 12 10 8 6 7 6 6 7 9 14 8 13 12 10 9 5
29 31 28 28 29 29 32 31 29 24 21 23 19 18 19 21 19 17 17 17 16 14 12 16 16 14 13 11 11 10 10 9 8 10 11 7 6 8 7 6 7 4 5 6 6 5 1 4 6
33 31 30 31 31 34 31 29 33 26 22 24 25 20 22 21 21 18 17 17 16 15 14 11 17 16 13 13 11 10 10 9 9 8 9 8 8 7 7 5 5 7 5 7 3 4 0 3 5
32 32 33 33 33 31 34 33 29 26 25 28 27 22 24 25 20 17 17 16 15 15 13 12 18 16 16 14 11 10 7 9 9 8 8 11 8 6 7 6 6 7 8 8 6 4 5 4 5
33 36 35 34 31 32 23 32 36 29 27 28 29 24 25 23 19 16 15 14 14 13 12 10 14 17 17 16 14 11 11 10 10 8 8 8 8 8 8 8 5 7 4 7 5 7 5 7 7
33 32 30 32 34 31 28 35 30 27 27 29 26 21 24 18 20 17 17 13 12 11 11 11 13 18 17 16 13 11 11 11 10 8 8 10 10 9 8 8 7 7 6 6 7 5 7 9 7
26 28 38 32 30 29 31 37 31 27 26 27 28 28 17 20 22 19 18 15 12 12 10 12 14 17 17 15 13 12 10 10 9 7 7 8 9 9 7 7 7 8 6 7 7 8 8 8 6
29 32 31 33 28 28 33 35 32 28 21 25 27 26 23 20 25 22 19 16 13 11 9 10 12 13 16 13 10 11 10 9 8 7 7 7 7 6 4 6 7 7 6 6 6 9 7 6 6
29 26 31 32 28 28 29 30 31 19 23 27 27 28 22 21 26 22 19 15 11 9 9 11 12 13 13 12 13 12 11 9 8 6 6 6 7 5 5 5 7 6 6 7 8 7 5 6 6
31 32 32 29 27 21 22 23 25 25 24 25 27 26 24 24 26 24 19 13 7 7 10 13 14 14 13 11 10 9 8 9 7 7 6 5 6 6 3 5 6 8 6 8 8 8 6 4 5
32 31 29 29 24 20 19 27 27 24 27 26 28 29 28 27 24 20 17 9 7 10 12 14 14 15 13 12 8 6 5 4 4 5 6 8 6 6 4 5 6 6 6 3 6 7 9 6 6
32 28 27 23 20 18 20 22 23 20 23 24 22 22 21 20 20 19 18 10 9 11 13 14 15 16 13 12 10 10 8 7 4 1 2 3 2 3 2 4 6 6 4 3 6 7 7 9 7
33 25 24 23 21 22 23 18 16 21 22 24 24 22 21 19 20 20 13 13 11 12 13 15 17 15 14 11 10 9 6 5 3 2 2 3 1 3 6 5 5 6 2 4 4 5 5 5 6
26 27 24 18 17 21 21 20 22 19 20 18 13 13 17 18 19 9 14 14 13 14 15 16 18 15 14 12 11 7 5 2 2 3 2 4 3 3 4 5 3 1 3 3 5 4 6 4 5
29 22 16 16 19 19 18 19 20 18 17 18 16 16 3 6 10 11 14 15 16 17 18 17 17 16 14 12 10 9 7 5 4 3 5 5 4 4 6 3 2 1 3 5 3 5 4 5 3
31 29 15 26 11 16 23 17 16 14 9 10 13 11 13 6 9 12 15 16 18 19 19 18 17 16 14 12 10 8 8 7 4 3 3 6 5 4 6 3 4 2 4 4 3 4 3 4 3
37 30 30 22 22 12 14 10 14 17 14 13 13 9 9 11 12 15 16 17 19 18 18 17 17 15 13 12 9 8 6 3 8 5 3 5 4 7 5 3 3 4 7 3 2 1 1 2 3
36 25 26 22 23 14 14 8 10 5 9 7 13 10 13 14 16 17 17 18 17 17 16 16 15 14 13 12 9 8 7 6 6 5 4 4 6 4 4 3 4 2 4 2 2 1 3 4 4
29 26 29 20 17 14 12 10 4 5 10 7 13 12 15 16 17 18 18 18 17 16 16 14 14 13 12 11 8 7 5 7 6 4 6 5 6 5 5 5 4 3 2 1 1 3 3 4 4
30 27 32 16 22 17 9 6 6 5 3 3 3 13 16 17 18 18 19 18 17 17 16 14 13 12 11 10 9 6 6 4 5 6 7 7 6 5 5 4 4 4 5 2 2 4 2 5 5
Wind_Direction
185 203 225 218 236 231 250 234 274 201 212 111 306 288 333 344 328 2 102 98 129 144 154 169 172 171 168 168 166 166 169 173 174 175 176 178 180 189 197 200 211 219 226 229 232 231 247 260 260
193 197 226 273 252 230 233 210 179 225 15 327 288 267 246 280 353 347 69 121 162 145 158 176 175 173 171 172 172 170 174 179 181 185 188 190 197 206 222 237 244 244 246 252 255 253 238 233 244
261 207 255 229 235 265 303 33 234 87 262 280 277 133 318 329 58 353 64 143 159 155 165 179 170 174 175 178 178 176 178 184 188 195 199 207 214 226 232 242 254 259 260 259 260 262 259 241 232
194 207 253 261 256 232 286 272 59 249 184 217 314 286 352 94 347 32 53 164 163 170 174 158 166 177 180 184 182 183 181 188 196 200 209 221 233 240 242 250 256 264 264 262 262 261 262 246 244
219 253 246 241 245 268 268 274 313 304 282 251 222 303 322 81 77 59 93 184 192 177 183 154 167 179 184 189 185 188 186 189 200 207 214 227 239 247 253 260 263 261 263 265 265 265 263 260 259
222 239 251 250 245 247 226 274 274 272 273 282 209 261 305 116 60 41 5 186 211 185 182 161 171 178 189 193 189 192 189 190 199 211 219 229 242 253 259 263 266 270 271 273 280 281 275 261 259
237 244 249 269 279 282 267 287 280 264 273 281 4 320 300 112 59 333 290 265 218 207 178 191 175 186 190 196 196 193 191 191 196 207 219 231 247 265 275 269 267 266 269 275 276 276 274 265 252
246 250 266 268 262 270 281 348 261 281 275 15 50 286 308 341 3 314 288 259 251 214 189 202 182 183 199 197 201 198 193 194 194 201 215 234 255 260 247 243 238 248 260 269 272 273 269 260 252
236 252 251 252 258 264 263 245 244 162 286 298 299 288 284 275 293 281 289 280 264 260 204 197 195 187 197 201 191 193 199 199 196 206 213 219 249 266 221 222 144 181 240 255 260 262 261 258 256
226 241 241 257 265 275 283 289 287 269 238 261 272 280 272 312 291 291 293 269 270 227 221 206 198 193 194 212 192 195 199 205 207 217 224 213 243 260 314 328 181 201 220 232 235 238 234 237 245
232 240 252 260 266 277 282 275 281 272 275 281 287 294 303 296 297 288 281 281 272 279 211 216 178 188 202 204 188 187 200 201 203 218 221 230 250 251 240 239 218 212 201 233 201 220 229 227 254
243 238 247 261 269 279 276 281 282 269 277 279 284 284 296 294 289 288 294 286 279 258 256 195 195 184 195 206 200 194 198 194 203 201 214 228 233 225 235 262 281 230 249 261 270 268 45 307 269
238 244 252 260 266 267 270 272 281 272 271 279 286 284 276 276 279 275 284 275 263 262 265 239 186 177 188 217 200 199 204 192 201 212 198 222 239 237 254 258 290 290 277 279 279 298 99 240 255
246 253 254 258 264 264 267 272 265 260 259 266 274 265 273 273 279 281 278 274 264 261 258 242 183 177 184 200 223 185 198 188 203 214 218 199 238 242 257 254 238 239 253 261 269 245 263 266 246
258 259 260 255 255 261 268 270 263 265 266 268 271 267 267 265 265 271 278 271 265 259 251 235 190 176 183 196 208 190 189 209 194 215 212 223 221 235 255 268 263 260 260 251 256 281 269 259 256
251 254 260 252 252 248 246 260 263 273 272 263 272 264 276 262 272 273 280 270 261 260 257 210 205 178 181 189 199 199 197 193 203 204 209 202 225 240 265 259 260 258 247 236 239 244 248 254 265
243 243 241 253 247 251 244 252 256 255 266 273 265 263 274 269 275 276 272 267 253 250 240 224 203 188 181 192 196 197 196 193 204 202 211 214 227 239 240 256 272 271 248 231 226 228 235 259 239
228 237 246 257 260 249 250 254 259 258 269 267 269 276 258 263 274 277 271 267 246 236 227 210 195 185 177 189 195 194 183 200 203 201 220 228 239 241 241 264 264 255 239 236 228 233 230 229 250
244 249 249 249 253 241 252 264 274 276 256 262 269 273 270 269 274 271 269 263 246 252 208 193 175 184 172 191 193 192 183 196 196 209 214 237 248 242 269 262 259 260 258 246 240 236 244 236 244
243 249 251 263 269 275 274 275 272 270 277 280 277 280 278 271 271 267 261 262 194 199 188 183 183 174 177 182 195 188 192 184 196 198 198 223 262 275 264 239 246 250 249 234 229 227 227 233 222
230 236 246 255 266 273 280 270 266 263 265 262 261 262 259 258 259 267 266 231 183 186 180 179 175 166 182 172 171 150 168 151 172 200 213 211 220 260 238 253 250 254 243 261 239 233 226 225 211
237 230 244 260 271 261 254 269 262 268 270 271 274 271 268 261 258 246 249 139 178 176 168 162 160 163 164 154 154 162 178 196 183 201 33 347 202 303 273 258 233 225 243 231 238 226 225 218 214
241 237 240 237 249 262 255 260 273 265 265 262 260 255 258 255 244 248 231 142 166 153 155 148 149 160 140 170 158 172 204 154 175 183 110 206 196 259 264 198 207 219 198 242 226 216 198 219 204
236 235 242 245 254 247 244 257 266 271 273 280 306 264 252 243 228 210 109 139 144 149 145 147 151 143 158 149 146 195 138 131 167 196 272 127 202 213 254 209 208 141 225 232 224 175 186 207 210
220 217 223 226 226 246 247 247 261 274 282 287 289 279 113 58 112 137 147 151 151 148 147 149 147 149 150 147 153 138 149 143 183 226 179 163 184 191 205 185 197 207 229 237 202 202 203 194 209
217 208 213 218 215 234 223 243 255 266 289 268 284 228 129 154 146 155 154 149 148 146 149 146 149 149 152 151 153 148 136 179 198 190 14 115 199 191 145 193 120 218 202 216 214 229 213 224 205
212 210 217 250 216 251 245 200 241 248 250 232 237 194 174 144 153 147 145 148 145 147 148 149 148 148 152 154 150 144 177 116 71 98 191 132 214 118 176 144 175 210 210 196 228 289 238 265 234
229 203 209 223 239 219 235 254 264 194 313 196 196 176 129 148 146 143 146 144 142 146 144 146 148 151 153 156 154 149 149 153 139 159 199 154 103 150 167 186 195 181 223 148 128 243 229 225 244
207 209 212 219 229 229 246 256 69 265 246 261 197 146 144 153 146 150 145 141 144 142 144 147 148 153 156 155 162 132 154 160 151 161 162 149 159 171 200 194 229 225 173 74 209 188 231 180 237
213 208 202 216 207 238 211 227 152 88 274 257 306 124 150 151 152 148 143 149 148 147 150 152 153 151 160 168 141 145 140 148 152 180 157 164 173 190 215 202 226 244 91 81 167 135 158 178 199